CZ-6A DEB, 54420

Orbit data source: Space-Track

CZ-6A DEB, 54420 is space debris in SSO originally from a launch on Fri, 11 Nov 2022 UTC launched from the Taiyaun Space Center, China (TSC). Debris objects in space refer to the collection of defunct objects orbiting the Earth. Examples of debris include non-operational satellites, rocket bodies, and fragments generated from explosions, collisions, or faulty payload assembly.

Loading next visibility...
Identifier
54420, 2022-151EU
Orbit
SSO
Country
Flag of CNCN / PRC
Related business
Manufacturer
SAST
Mission
Spacecraft
Bus & Motor
Unknown
Mass
Unknown
Launch date (UTC)
2022-11-11 (3 years ago)
Launch vehicle
Unknown
Launch site
Taiyaun Space Center, China (TSC)
Object type
Payload
Rocket body
Debris
Shape & HBR
Unknown shape, 0.1 m
Radar Cross Section
Small (<0.1 m²)

Expand to show TLE details & history
Last TLE update: 6 hours ago

TLE from 6 hours ago
0 CZ-6A DEB
1 54420U 22151EU  26130.44289446  .00000937  00000-0  21828-3 0  9992
2 54420  98.6705 202.3785 0117356 340.1965  19.4693 14.53309841184418
Epoch: 2026-05-10T10:37Z
TLE epoch observation values (Epoch: 2026-05-10T10:37:46.081Z)
Latitude
-0.00001°
Longitude
174.69059°
Altitude
639.434 km
Speed
7.58 km/s
True Right ascension
13h 29m 30s
True Declination
0° 00' 00"
Sunlit
Object was in full shadow at epoch
Visualization orbit readout
Latitude
Unknown
Longitude
Unknown
Altitude
Unknown
Speed
Unknown
Apparent Right ascension
Unknown
Apparent Declination
Unknown
Sunlit
N/A
Visualization observer readout
Local Sidereal Time
01:07:25
Azimuth
Unknown
Elevation
Unknown
Doppler factor
Unknown
Orbital elements
Apogee altitude
795.177 km
Perigee altitude
628.764 km
Semi-major axis
7,090.107 km
Eccentricity
0.01174
Inclination
98.6705°
RAAN
202.3785°
Arg. of periapsis
340.1965°
True anomaly
19.9238°
Mean anomaly
19.4693°
Eccentric anomaly
19.69592°
Mean motion
3.6355 °/min
Orbital period
99.02 mins
BSTAR
0.00021828
Loading maneuver chart data...
Computing Atmospheric mass density...
Loading historical data...
Loading historical data...
Loading historical data...
Loading historical data...
Loading historical data...
Loading historical data...
Loading historical data...

Documentation

Showing up to 5 results
|